| time (UTC) | temp C | wind direction | speed KPH | gust KPH | rain 1hr cm | rain 24hr cm | rain mn cm | humidity % | barometer mb |
| 20260505205937 | 17 | 312 | 4.8 | 11.3 | 0.00 | 0.00 | 0.00 | 71 | 1015.9 |
| 20260505205438 | 17 | 6 | 4.8 | 11.3 | 0.00 | 0.00 | 0.00 | 72 | 1016.0 |
| 20260505204938 | 17 | 48 | 3.2 | 6.4 | 0.00 | 0.00 | 0.00 | 70 | 1016.0 |
| 20260505204432 | 16 | 339 | 3.2 | 6.4 | 0.00 | 0.00 | 0.00 | 71 | 1016.0 |
| 20260505203931 | 16 | 358 | 1.6 | 6.4 | 0.00 | 0.00 | 0.00 | 73 | 1016.0 |
| 20260505203431 | 16 | 327 | 1.6 | 4.8 | 0.00 | 0.00 | 0.00 | 72 | 1016.2 |
| 20260505202923 | 16 | 37 | 3.2 | 9.7 | 0.00 | 0.00 | 0.00 | 72 | 1016.2 |
| 20260505202421 | 16 | 23 | 4.8 | 11.3 | 0.00 | 0.00 | 0.00 | 72 | 1016.1 |
| 20260505201922 | 16 | 23 | 4.8 | 11.3 | 0.00 | 0.00 | 0.00 | 73 | 1016.0 |
| 20260505201421 | 16 | 10 | 3.2 | 9.7 | 0.00 | 0.00 | 0.00 | 73 | 1016.1 |
| 20260505200920 | 16 | 347 | 3.2 | 8.0 | 0.00 | 0.00 | 0.00 | 72 | 1016.1 |
| 20260505200417 | 16 | 175 | 4.8 | 8.0 | 0.00 | 0.00 | 0.00 | 73 | 1016.1 |
| 20260505195917 | 16 | 265 | 4.8 | 9.7 | 0.00 | 0.00 | 0.00 | 74 | 1016.1 |
| 20260505195638 | 16 | 239 | 3.2 | 9.7 | 0.00 | 0.00 | 0.00 | 75 | 1016.1 |
| 20260505194919 | 15 | 94 | 3.2 | 9.7 | 0.00 | 0.00 | 0.00 | 75 | 1016.1 |
| 20260505194404 | 15 | 122 | 1.6 | 9.7 | 0.00 | 0.00 | 0.00 | 74 | 1016.1 |
| 20260505193901 | 15 | 135 | 1.6 | 6.4 | 0.00 | 0.00 | 0.00 | 74 | 1016.2 |
| 20260505193842 | 15 | 138 | 1.6 | 6.4 | 0.00 | 0.00 | 0.00 | 75 | 1016.1 |
| 20260505192902 | 15 | 192 | 1.6 | 9.7 | 0.00 | 0.00 | 0.00 | 75 | 1016.1 |
| 20260505192357 | 15 | 192 | 3.2 | 9.7 | 0.00 | 0.00 | 0.00 | 77 | 1016.1 |
| 20260505191847 | 15 | 257 | 1.6 | 9.7 | 0.00 | 0.00 | 0.00 | 76 | 1016.1 |
| 20260505191342 | 15 | 160 | 1.6 | 4.8 | 0.00 | 0.00 | 0.00 | 76 | 1016.1 |
| 20260505190842 | 15 | 219 | 1.6 | 6.4 | 0.00 | 0.00 | 0.00 | 79 | 1016.0 |
| 20260505190346 | 15 | 219 | 3.2 | 6.4 | 0.00 | 0.00 | 0.00 | 77 | 1016.0 |
| 20260505185842 | 15 | 157 | 3.2 | 6.4 | 0.00 | 0.00 | 0.00 | 76 | 1016.1 |
| 20260505185546 | 15 | 200 | 4.8 | 11.3 | 0.00 | 0.00 | 0.00 | 78 | 1016.0 |
| 20260505185436 | 15 | 206 | 4.8 | 11.3 | 0.00 | 0.00 | 0.00 | 78 | 1016.0 |
| 20260505184339 | 15 | 169 | 3.2 | 6.4 | 0.00 | 0.00 | 0.00 | 77 | 1016.0 |
| 20260505183840 | 15 | 231 | 3.2 | 6.4 | 0.00 | 0.00 | 0.00 | 78 | 1016.0 |
| 20260505183559 | 15 | 231 | 1.6 | 6.4 | 0.00 | 0.00 | 0.00 | 75 | 1015.9 |
| 20260505182831 | 15 | 74 | 0.0 | 3.2 | 0.00 | 0.00 | 0.00 | 78 | 1016.0 |
| 20260505182558 | 14 | 65 | 1.6 | 4.8 | 0.00 | 0.00 | 0.00 | 77 | 1015.9 |
| 20260505181825 | 14 | 164 | 3.2 | 8.0 | 0.00 | 0.00 | 0.00 | 77 | 1015.9 |
| 20260505181322 | 14 | 223 | 4.8 | 9.7 | 0.00 | 0.00 | 0.00 | 76 | 1015.8 |
| 20260505181040 | 14 | 152 | 3.2 | 9.7 | 0.00 | 0.00 | 0.00 | 77 | 1015.8 |
| 20260505180803 | 14 | 206 | 3.2 | 6.4 | 0.00 | 0.00 | 0.00 | 77 | 1015.8 |
| 20260505175823 | 15 | 235 | 1.6 | 6.4 | 0.00 | 0.00 | 0.00 | 77 | 1015.8 |
| 20260505175545 | 14 | 260 | 1.6 | 6.4 | 0.00 | 0.00 | 0.00 | 77 | 1015.8 |
| 20260505174812 | 14 | 218 | 3.2 | 8.0 | 0.00 | 0.00 | 0.00 | 78 | 1015.8 |
| 20260505174315 | 14 | 223 | 3.2 | 9.7 | 0.00 | 0.00 | 0.00 | 76 | 1015.7 |
| 20260505173812 | 14 | 214 | 3.2 | 9.7 | 0.00 | 0.00 | 0.00 | 78 | 1015.8 |
| 20260505173310 | 13 | 137 | 3.2 | 6.4 | 0.00 | 0.00 | 0.00 | 78 | 1015.8 |
| 20260505172813 | 13 | 173 | 3.2 | 6.4 | 0.00 | 0.00 | 0.00 | 78 | 1015.8 |
| 20260505172308 | 14 | 198 | 1.6 | 6.4 | 0.00 | 0.00 | 0.00 | 77 | 1015.7 |
| 20260505171805 | 13 | 179 | 3.2 | 6.4 | 0.00 | 0.00 | 0.00 | 78 | 1015.6 |
| 20260505171303 | 13 | 147 | 4.8 | 12.9 | 0.00 | 0.00 | 0.00 | 78 | 1015.7 |
| 20260505170801 | 13 | 152 | 6.4 | 12.9 | 0.00 | 0.00 | 0.00 | 77 | 1015.7 |
| 20260505170305 | 14 | 172 | 3.2 | 12.9 | 0.00 | 0.00 | 0.00 | 78 | 1015.6 |
| 20260505170025 | 13 | 225 | 3.2 | 6.4 | 0.00 | 0.00 | 0.00 | 79 | 1015.7 |
| 20260505165301 | 13 | 178 | 3.2 | 6.4 | 0.00 | 0.00 | 0.00 | 79 | 1015.6 |
| 20260505164757 | 13 | 237 | 3.2 | 8.0 | 0.00 | 0.00 | 0.00 | 78 | 1015.6 |
| 20260505164524 | 13 | 229 | 3.2 | 8.0 | 0.00 | 0.00 | 0.00 | 79 | 1015.7 |
| 20260505163757 | 13 | 265 | 3.2 | 8.0 | 0.00 | 0.00 | 0.00 | 80 | 1015.7 |
| 20260505163519 | 13 | 182 | 1.6 | 6.4 | 0.00 | 0.00 | 0.00 | 79 | 1015.7 |
| 20260505162749 | 13 | 249 | 3.2 | 6.4 | 0.00 | 0.00 | 0.00 | 80 | 1015.7 |
| 20260505162249 | 13 | 237 | 3.2 | 6.4 | 0.00 | 0.00 | 0.00 | 80 | 1015.6 |
| 20260505161750 | 13 | 212 | 3.2 | 6.4 | 0.00 | 0.00 | 0.00 | 80 | 1015.7 |
| 20260505161253 | 13 | 247 | 1.6 | 4.8 | 0.00 | 0.00 | 0.00 | 79 | 1015.7 |
| 20260505160741 | 13 | 238 | 3.2 | 8.0 | 0.00 | 0.00 | 0.00 | 80 | 1015.7 |
| 20260505160502 | 13 | 241 | 4.8 | 8.0 | 0.00 | 0.00 | 0.00 | 80 | 1015.7 |
| 20260505152722 | 13 | 208 | 4.8 | 8.0 | 0.00 | 0.00 | 0.00 | 82 | 1015.8 |
| 20260505152216 | 13 | 228 | 4.8 | 8.0 | 0.00 | 0.00 | 0.00 | 82 | 1015.6 |
| 20260505151715 | 13 | 221 | 4.8 | 9.7 | 0.00 | 0.00 | 0.00 | 83 | 1015.7 |
| 20260505151450 | 12 | 187 | 4.8 | 9.7 | 0.00 | 0.00 | 0.00 | 83 | 1015.6 |
| 20260505150715 | 12 | 181 | 4.8 | 8.0 | 0.00 | 0.00 | 0.00 | 82 | 1015.6 |
| 20260505150433 | 12 | 204 | 4.8 | 8.0 | 0.00 | 0.00 | 0.00 | 82 | 1015.5 |
| 20260505140205 | 12 | 175 | 1.6 | 4.8 | 0.00 | 0.00 | 0.00 | 84 | 1015.3 |
| 20260505125026 | 12 | 258 | 3.2 | 4.8 | 0.00 | 0.00 | 0.00 | 85 | 1015.0 |
| 20260505124520 | 12 | 258 | 4.8 | 8.0 | 0.00 | 0.00 | 0.00 | 85 | 1014.9 |
| 20260505124017 | 12 | 254 | 4.8 | 9.7 | 0.00 | 0.00 | 0.00 | 85 | 1014.8 |
| 20260505123515 | 12 | 247 | 4.8 | 9.7 | 0.00 | 0.00 | 0.00 | 85 | 1014.9 |
| 20260505123015 | 11 | 248 | 4.8 | 9.7 | 0.00 | 0.00 | 0.00 | 85 | 1014.7 |
| 20260505122512 | 12 | 257 | 4.8 | 9.7 | 0.00 | 0.00 | 0.00 | 86 | 1014.7 |
| 20260505122012 | 12 | 293 | 3.2 | 8.0 | 0.00 | 0.00 | 0.00 | 86 | 1014.7 |
| 20260505121737 | 12 | 238 | 3.2 | 6.4 | 0.00 | 0.00 | 0.00 | 86 | 1014.7 |
| 20260505121012 | 12 | 238 | 3.2 | 6.4 | 0.00 | 0.00 | 0.00 | 86 | 1014.7 |
| 20260505120721 | 12 | 238 | 3.2 | 8.0 | 0.00 | 0.00 | 0.00 | 86 | 1014.7 |
| 20260505115950 | 12 | 232 | 4.8 | 8.0 | 0.00 | 0.00 | 0.00 | 86 | 1014.6 |
| 20260505115439 | 12 | 288 | 4.8 | 9.7 | 0.00 | 0.00 | 0.00 | 86 | 1014.7 |
| 20260505114938 | 11 | 288 | 4.8 | 9.7 | 0.00 | 0.00 | 0.00 | 87 | 1014.7 |
| 20260505114434 | 11 | 265 | 3.2 | 9.7 | 0.00 | 0.00 | 0.00 | 88 | 1014.7 |
| 20260505114154 | 11 | 244 | 1.6 | 4.8 | 0.00 | 0.00 | 0.00 | 90 | 1014.7 |
| 20260505113427 | 11 | 244 | 1.6 | 4.8 | 0.00 | 0.00 | 0.00 | 90 | 1014.8 |
| 20260505112927 | 12 | 244 | 3.2 | 8.0 | 0.00 | 0.00 | 0.00 | 88 | 1014.8 |
| 20260505112422 | 12 | 248 | 3.2 | 8.0 | 0.00 | 0.00 | 0.00 | 85 | 1014.8 |
| 20260505111917 | 12 | 230 | 1.6 | 4.8 | 0.00 | 0.00 | 0.00 | 85 | 1014.7 |
| 20260505111412 | 12 | 230 | 1.6 | 4.8 | 0.00 | 0.00 | 0.00 | 85 | 1014.8 |
| 20260505110909 | 12 | 208 | 1.6 | 3.2 | 0.00 | 0.00 | 0.00 | 86 | 1014.8 |
| 20260505110404 | 12 | 208 | 1.6 | 4.8 | 0.00 | 0.00 | 0.00 | 86 | 1014.7 |
| 20260505110127 | 12 | 208 | 1.6 | 4.8 | 0.00 | 0.00 | 0.00 | 85 | 1014.8 |
| 20260505101812 | 12 | 242 | 3.2 | 6.4 | 0.00 | 0.00 | 0.00 | 87 | 1014.6 |
| 20260505101253 | 12 | 240 | 3.2 | 4.8 | 0.00 | 0.00 | 0.00 | 87 | 1014.4 |
| 20260505100752 | 12 | 234 | 3.2 | 8.0 | 0.00 | 0.00 | 0.00 | 87 | 1014.4 |
| 20260505100252 | 12 | 242 | 4.8 | 8.0 | 0.00 | 0.00 | 0.00 | 87 | 1014.5 |
| 20260505100231 | 12 | 235 | 4.8 | 9.7 | 0.00 | 0.00 | 0.00 | 86 | 1014.5 |
| 20260505095244 | 12 | 265 | 4.8 | 9.7 | 0.00 | 0.00 | 0.00 | 87 | 1014.5 |
| 20260505094742 | 12 | 240 | 4.8 | 9.7 | 0.00 | 0.00 | 0.00 | 86 | 1014.6 |
| 20260505094240 | 12 | 227 | 6.4 | 9.7 | 0.00 | 0.00 | 0.00 | 86 | 1014.6 |
| 20260505093957 | 12 | 243 | 6.4 | 9.7 | 0.00 | 0.00 | 0.00 | 86 | 1014.4 |
| 20260505093237 | 12 | 233 | 6.4 | 12.9 | 0.00 | 0.00 | 0.00 | 86 | 1014.5 |
| 20260505092729 | 12 | 219 | 8.0 | 12.9 | 0.00 | 0.00 | 0.00 | 86 | 1014.5 |
| 20260505092229 | 12 | 232 | 6.4 | 12.9 | 0.00 | 0.00 | 0.00 | 86 | 1014.4 |
| 20260505091728 | 12 | 233 | 4.8 | 9.7 | 0.00 | 0.00 | 0.00 | 86 | 1014.4 |
| 20260505091225 | 12 | 209 | 4.8 | 9.7 | 0.00 | 0.00 | 0.00 | 86 | 1014.4 |
| 20260505090945 | 12 | 206 | 3.2 | 9.7 | 0.00 | 0.00 | 0.00 | 86 | 1014.4 |
| 20260505090224 | 12 | 206 | 3.2 | 6.4 | 0.00 | 0.00 | 0.00 | 86 | 1014.6 |
| 20260505085713 | 12 | 223 | 4.8 | 8.0 | 0.00 | 0.00 | 0.00 | 86 | 1014.4 |
| 20260505085214 | 12 | 223 | 4.8 | 8.0 | 0.00 | 0.00 | 0.00 | 86 | 1014.5 |
| 20260505084716 | 12 | 227 | 6.4 | 8.0 | 0.00 | 0.00 | 0.00 | 85 | 1014.5 |
| 20260505084213 | 12 | 229 | 4.8 | 8.0 | 0.00 | 0.00 | 0.00 | 85 | 1014.5 |
| 20260505083714 | 12 | 242 | 4.8 | 9.7 | 0.00 | 0.00 | 0.00 | 85 | 1014.4 |
| 20260505083214 | 12 | 192 | 3.2 | 9.7 | 0.00 | 0.00 | 0.00 | 85 | 1014.4 |
| 20260505082714 | 12 | 229 | 3.2 | 6.4 | 0.00 | 0.00 | 0.00 | 86 | 1014.5 |
| 20260505082204 | 12 | 229 | 3.2 | 6.4 | 0.00 | 0.00 | 0.00 | 85 | 1014.6 |
| 20260505081659 | 12 | 210 | 4.8 | 6.4 | 0.00 | 0.00 | 0.00 | 85 | 1014.6 |
| 20260505081159 | 12 | 231 | 4.8 | 8.0 | 0.00 | 0.00 | 0.00 | 85 | 1014.5 |
| 20260505080917 | 12 | 235 | 4.8 | 11.3 | 0.00 | 0.00 | 0.00 | 85 | 1014.6 |
| 20260505080158 | 12 | 212 | 6.4 | 11.3 | 0.00 | 0.00 | 0.00 | 85 | 1014.6 |
| 20260505075659 | 12 | 211 | 6.4 | 12.9 | 0.00 | 0.00 | 0.00 | 85 | 1014.6 |
| 20260505075422 | 12 | 245 | 6.4 | 12.9 | 0.00 | 0.00 | 0.00 | 85 | 1014.7 |
| 20260505074658 | 12 | 236 | 9.7 | 17.7 | 0.00 | 0.00 | 0.00 | 85 | 1014.6 |
| 20260505074420 | 12 | 227 | 9.7 | 17.7 | 0.00 | 0.00 | 0.00 | 85 | 1014.6 |
| 20260505073656 | 12 | 215 | 8.0 | 14.5 | 0.00 | 0.00 | 0.00 | 85 | 1014.7 |
| 20260505073157 | 12 | 216 | 9.7 | 17.7 | 0.00 | 0.00 | 0.00 | 85 | 1014.6 |
| 20260505072653 | 12 | 217 | 9.7 | 17.7 | 0.00 | 0.00 | 0.00 | 84 | 1014.7 |
| 20260505072407 | 12 | 224 | 8.0 | 14.5 | 0.00 | 0.00 | 0.00 | 84 | 1014.6 |
| 20260505071650 | 12 | 229 | 9.7 | 17.7 | 0.00 | 0.00 | 0.00 | 84 | 1014.6 |
| 20260505071154 | 12 | 241 | 11.3 | 17.7 | 0.00 | 0.00 | 0.00 | 84 | 1014.6 |
| 20260505070651 | 12 | 226 | 11.3 | 17.7 | 0.00 | 0.00 | 0.00 | 84 | 1014.5 |
| 20260505070148 | 12 | 233 | 12.9 | 20.9 | 0.00 | 0.00 | 0.00 | 84 | 1014.5 |
| 20260505065651 | 12 | 237 | 12.9 | 20.9 | 0.00 | 0.00 | 0.00 | 84 | 1014.6 |
| 20260505065406 | 12 | 220 | 11.3 | 17.7 | 0.00 | 0.00 | 0.00 | 84 | 1014.5 |
| 20260505064647 | 12 | 254 | 9.7 | 16.1 | 0.00 | 0.00 | 0.00 | 84 | 1014.5 |
| 20260505064145 | 12 | 229 | 9.7 | 17.7 | 0.00 | 0.00 | 0.00 | 84 | 1014.4 |
| 20260505063646 | 12 | 236 | 11.3 | 17.7 | 0.00 | 0.00 | 0.00 | 84 | 1014.4 |
| 20260505063625 | 12 | 249 | 11.3 | 19.3 | 0.00 | 0.00 | 0.00 | 84 | 1014.4 |
| 20260505062623 | 12 | 220 | 12.9 | 19.3 | 0.00 | 0.00 | 0.00 | 84 | 1014.4 |
| 20260505062109 | 12 | 215 | 11.3 | 17.7 | 0.00 | 0.00 | 0.00 | 83 | 1014.5 |
| 20260505061600 | 12 | 237 | 9.7 | 16.1 | 0.00 | 0.00 | 0.00 | 83 | 1014.4 |
| 20260505061540 | 12 | 235 | 8.0 | 14.5 | 0.00 | 0.00 | 0.00 | 83 | 1014.5 |
| 20260505060559 | 12 | 254 | 11.3 | 20.9 | 0.00 | 0.00 | 0.00 | 83 | 1014.5 |
| 20260505060055 | 12 | 246 | 11.3 | 20.9 | 0.00 | 0.00 | 0.00 | 83 | 1014.4 |
| 20260505055557 | 12 | 236 | 9.7 | 17.7 | 0.00 | 0.00 | 0.00 | 83 | 1014.4 |
| 20260505055054 | 12 | 222 | 9.7 | 17.7 | 0.00 | 0.00 | 0.00 | 83 | 1014.4 |
| 20260505054551 | 12 | 243 | 9.7 | 17.7 | 0.00 | 0.00 | 0.00 | 83 | 1014.3 |
| 20260505054050 | 12 | 231 | 9.7 | 17.7 | 0.00 | 0.00 | 0.00 | 83 | 1014.4 |
| 20260505053551 | 12 | 216 | 9.7 | 16.1 | 0.00 | 0.00 | 0.00 | 83 | 1014.3 |
| 20260505053051 | 12 | 245 | 11.3 | 17.7 | 0.00 | 0.00 | 0.00 | 83 | 1014.2 |
| 20260505052814 | 12 | 249 | 11.3 | 19.3 | 0.00 | 0.00 | 0.00 | 83 | 1014.2 |
| 20260505052049 | 12 | 223 | 9.7 | 19.3 | 0.00 | 0.00 | 0.00 | 83 | 1014.3 |
| 20260505051547 | 12 | 225 | 11.3 | 16.1 | 0.00 | 0.00 | 0.00 | 83 | 1014.4 |
| 20260505051047 | 12 | 248 | 11.3 | 16.1 | 0.00 | 0.00 | 0.00 | 83 | 1014.3 |
| 20260505051036 | 12 | 217 | 11.3 | 16.1 | 0.00 | 0.00 | 0.00 | 83 | 1014.2 |
| 20260505050307 | 12 | 233 | 11.3 | 19.3 | 0.00 | 0.00 | 0.00 | 83 | 1014.1 |
| 20260505041539 | 12 | 220 | 11.3 | 22.5 | 0.00 | 0.00 | 0.00 | 83 | 1013.6 |
| 20260505041038 | 12 | 233 | 11.3 | 17.7 | 0.00 | 0.00 | 0.00 | 83 | 1013.5 |
| 20260505040537 | 12 | 226 | 12.9 | 17.7 | 0.00 | 0.00 | 0.00 | 83 | 1013.5 |
| 20260505040038 | 12 | 222 | 11.3 | 17.7 | 0.00 | 0.00 | 0.00 | 83 | 1013.3 |
| 20260505035537 | 12 | 225 | 11.3 | 17.7 | 0.00 | 0.00 | 0.00 | 83 | 1013.1 |
| 20260505035038 | 12 | 233 | 11.3 | 19.3 | 0.00 | 0.00 | 0.00 | 83 | 1013.3 |
| 20260505034536 | 12 | 172 | 11.3 | 19.3 | 0.00 | 0.00 | 0.00 | 83 | 1013.1 |
| 20260505034035 | 12 | 194 | 9.7 | 19.3 | 0.00 | 0.00 | 0.00 | 83 | 1013.1 |
| 20260505033534 | 13 | 189 | 9.7 | 19.3 | 0.00 | 0.00 | 0.00 | 83 | 1013.0 |
| 20260505033032 | 13 | 227 | 9.7 | 19.3 | 0.00 | 0.00 | 0.00 | 82 | 1013.0 |
| 20260505032536 | 13 | 253 | 11.3 | 17.7 | 0.00 | 0.00 | 0.00 | 82 | 1012.9 |
| 20260505032034 | 13 | 232 | 11.3 | 20.9 | 0.00 | 0.00 | 0.00 | 81 | 1012.9 |
| 20260505031533 | 13 | 221 | 11.3 | 20.9 | 0.00 | 0.00 | 0.00 | 81 | 1012.8 |
| 20260505031032 | 13 | 229 | 11.3 | 17.7 | 0.00 | 0.00 | 0.00 | 80 | 1012.8 |
| 20260505030531 | 13 | 238 | 12.9 | 20.9 | 0.00 | 0.00 | 0.00 | 80 | 1012.6 |
| 20260505030032 | 14 | 228 | 12.9 | 20.9 | 0.00 | 0.00 | 0.00 | 79 | 1012.5 |
| 20260505025531 | 14 | 236 | 11.3 | 20.9 | 0.00 | 0.00 | 0.00 | 79 | 1012.5 |
| 20260505025030 | 14 | 241 | 11.3 | 20.9 | 0.00 | 0.00 | 0.00 | 79 | 1012.4 |
| 20260505024531 | 14 | 223 | 11.3 | 17.7 | 0.00 | 0.00 | 0.00 | 78 | 1012.3 |
| 20260505024026 | 15 | 216 | 9.7 | 17.7 | 0.00 | 0.00 | 0.00 | 78 | 1012.2 |
| 20260505023525 | 15 | 216 | 9.7 | 16.1 | 0.00 | 0.00 | 0.00 | 78 | 1012.2 |
| 20260505023244 | 15 | 212 | 11.3 | 22.5 | 0.00 | 0.00 | 0.00 | 78 | 1012.2 |
| 20260505022524 | 15 | 259 | 14.5 | 22.5 | 0.00 | 0.00 | 0.00 | 77 | 1012.1 |
| 20260505022019 | 15 | 230 | 16.1 | 22.5 | 0.00 | 0.00 | 0.00 | 76 | 1012.1 |
| 20260505021519 | 15 | 230 | 14.5 | 24.1 | 0.00 | 0.00 | 0.00 | 76 | 1012.1 |
| 20260505021012 | 15 | 227 | 14.5 | 24.1 | 0.00 | 0.00 | 0.00 | 75 | 1012.1 |
| 20260505020510 | 16 | 218 | 12.9 | 20.9 | 0.00 | 0.00 | 0.00 | 75 | 1012.1 |
| 20260505020011 | 16 | 224 | 12.9 | 20.9 | 0.00 | 0.00 | 0.00 | 75 | 1012.1 |
| 20260505015511 | 16 | 231 | 14.5 | 27.4 | 0.00 | 0.00 | 0.00 | 75 | 1012.1 |
| 20260505015007 | 16 | 236 | 14.5 | 27.4 | 0.00 | 0.00 | 0.00 | 74 | 1012.2 |
| 20260505014507 | 16 | 260 | 16.1 | 25.7 | 0.00 | 0.00 | 0.00 | 74 | 1012.1 |
| 20260505013958 | 16 | 229 | 17.7 | 27.4 | 0.00 | 0.00 | 0.00 | 74 | 1012.2 |
| 20260505013457 | 16 | 211 | 17.7 | 27.4 | 0.00 | 0.00 | 0.00 | 73 | 1012.2 |
| 20260505013000 | 16 | 233 | 17.7 | 27.4 | 0.00 | 0.00 | 0.00 | 72 | 1012.0 |
| 20260505012456 | 17 | 270 | 17.7 | 27.4 | 0.00 | 0.00 | 0.00 | 72 | 1012.2 |
| 20260505011956 | 17 | 241 | 19.3 | 25.7 | 0.00 | 0.00 | 0.00 | 72 | 1012.1 |
| 20260505011719 | 17 | 237 | 17.7 | 25.7 | 0.00 | 0.00 | 0.00 | 72 | 1012.2 |
| 20260505010954 | 17 | 231 | 16.1 | 25.7 | 0.00 | 0.00 | 0.00 | 71 | 1012.1 |
| 20260505010454 | 17 | 221 | 16.1 | 27.4 | 0.00 | 0.00 | 0.00 | 70 | 1012.2 |
| 20260505005952 | 17 | 261 | 16.1 | 27.4 | 0.00 | 0.00 | 0.00 | 71 | 1012.1 |
| 20260505005452 | 17 | 232 | 16.1 | 25.7 | 0.00 | 0.00 | 0.00 | 70 | 1012.3 |
| 20260505004952 | 18 | 230 | 16.1 | 25.7 | 0.00 | 0.00 | 0.00 | 70 | 1012.2 |
| 20260505004448 | 18 | 275 | 16.1 | 29.0 | 0.00 | 0.00 | 0.00 | 69 | 1012.2 |
| 20260505003950 | 18 | 226 | 17.7 | 30.6 | 0.00 | 0.00 | 0.00 | 70 | 1012.3 |
| 20260505003708 | 18 | 243 | 17.7 | 30.6 | 0.00 | 0.00 | 0.00 | 69 | 1012.2 |
| 20260505003215 | 18 | 243 | 16.1 | 27.4 | 0.00 | 0.00 | 0.00 | 70 | 1012.1 |
| 20260505002448 | 18 | 249 | 16.1 | 27.4 | 0.00 | 0.00 | 0.00 | 68 | 1012.0 |
| 20260505001946 | 18 | 250 | 16.1 | 27.4 | 0.00 | 0.00 | 0.00 | 68 | 1012.1 |
| 20260505001445 | 19 | 243 | 16.1 | 25.7 | 0.00 | 0.00 | 0.00 | 68 | 1012.1 |
| 20260505000946 | 19 | 250 | 16.1 | 25.7 | 0.00 | 0.00 | 0.00 | 66 | 1012.1 |
| 20260505000444 | 19 | 251 | 12.9 | 24.1 | 0.00 | 0.00 | 0.00 | 68 | 1012.1 |
| 20260504235941 | 19 | 251 | 14.5 | 29.0 | 0.00 | 0.00 | 0.00 | 68 | 1012.2 |
| 20260504235702 | 19 | 244 | 17.7 | 29.0 | 0.00 | 0.00 | 0.00 | 67 | 1012.2 |
| 20260504234942 | 19 | 225 | 16.1 | 27.4 | 0.00 | 0.00 | 0.00 | 67 | 1012.3 |
| 20260504234441 | 19 | 223 | 14.5 | 25.7 | 0.00 | 0.00 | 0.00 | 67 | 1012.1 |
| 20260504233939 | 19 | 235 | 12.9 | 25.7 | 0.00 | 0.00 | 0.00 | 67 | 1012.1 |
| 20260504233442 | 20 | 252 | 12.9 | 20.9 | 0.00 | 0.00 | 0.00 | 67 | 1012.1 |
| 20260504232939 | 20 | 231 | 14.5 | 22.5 | 0.00 | 0.00 | 0.00 | 67 | 1012.2 |
| 20260504232436 | 20 | 256 | 14.5 | 22.5 | 0.00 | 0.00 | 0.00 | 67 | 1012.2 |
| 20260504232159 | 20 | 238 | 14.5 | 24.1 | 0.00 | 0.00 | 0.00 | 68 | 1012.2 |
| 20260504231433 | 20 | 226 | 14.5 | 24.1 | 0.00 | 0.00 | 0.00 | 67 | 1012.4 |
| 20260504230932 | 20 | 252 | 14.5 | 24.1 | 0.00 | 0.00 | 0.00 | 68 | 1012.4 |
| 20260504230427 | 20 | 225 | 14.5 | 24.1 | 0.00 | 0.00 | 0.00 | 68 | 1012.4 |
| 20260504225927 | 20 | 249 | 14.5 | 24.1 | 0.00 | 0.00 | 0.00 | 69 | 1012.6 |
| 20260504225428 | 20 | 229 | 14.5 | 24.1 | 0.00 | 0.00 | 0.00 | 66 | 1012.5 |
| 20260504224924 | 20 | 237 | 12.9 | 22.5 | 0.00 | 0.00 | 0.00 | 66 | 1012.7 |
| 20260504224424 | 20 | 254 | 14.5 | 25.7 | 0.00 | 0.00 | 0.00 | 66 | 1012.7 |
| 20260504223922 | 20 | 305 | 14.5 | 25.7 | 0.00 | 0.00 | 0.00 | 67 | 1012.8 |
| 20260504223421 | 20 | 243 | 12.9 | 24.1 | 0.00 | 0.00 | 0.00 | 66 | 1012.7 |
| 20260504223142 | 20 | 258 | 12.9 | 24.1 | 0.00 | 0.00 | 0.00 | 64 | 1012.9 |
| 20260504222415 | 20 | 310 | 12.9 | 20.9 | 0.00 | 0.00 | 0.00 | 66 | 1013.1 |
| 20260504221918 | 20 | 227 | 12.9 | 22.5 | 0.00 | 0.00 | 0.00 | 67 | 1013.0 |
| 20260504221641 | 20 | 250 | 14.5 | 22.5 | 0.00 | 0.00 | 0.00 | 65 | 1013.1 |
| 20260504220910 | 20 | 270 | 12.9 | 22.5 | 0.00 | 0.00 | 0.00 | 65 | 1013.2 |
| 20260504220411 | 20 | 256 | 12.9 | 22.5 | 0.00 | 0.00 | 0.00 | 64 | 1013.2 |
| 20260504220347 | 20 | 238 | 12.9 | 22.5 | 0.00 | 0.00 | 0.00 | 66 | 1013.2 |
| 20260504215409 | 21 | 221 | 12.9 | 24.1 | 0.00 | 0.00 | 0.00 | 65 | 1013.3 |
| 20260504214909 | 20 | 265 | 11.3 | 24.1 | 0.00 | 0.00 | 0.00 | 65 | 1013.2 |
| 20260504214407 | 20 | 249 | 12.9 | 20.9 | 0.00 | 0.00 | 0.00 | 67 | 1013.2 |
| 20260504214130 | 20 | 220 | 11.3 | 20.9 | 0.00 | 0.00 | 0.00 | 66 | 1013.2 |
| 20260504213404 | 19 | 259 | 8.0 | 17.7 | 0.00 | 0.00 | 0.00 | 69 | 1013.2 |
| 20260504212902 | 18 | 230 | 8.0 | 16.1 | 0.00 | 0.00 | 0.00 | 70 | 1013.3 |
| 20260504212403 | 19 | 225 | 8.0 | 17.7 | 0.00 | 0.00 | 0.00 | 69 | 1013.2 |
| 20260504211902 | 18 | 161 | 8.0 | 17.7 | 0.00 | 0.00 | 0.00 | 70 | 1013.3 |
| 20260504211401 | 18 | 255 | 6.4 | 16.1 | 0.00 | 0.00 | 0.00 | 69 | 1013.4 |
| 20260504211118 | 18 | 227 | 6.4 | 16.1 | 0.00 | 0.00 | 0.00 | 69 | 1013.4 |
| 20260504210400 | 18 | 260 | 4.8 | 14.5 | 0.00 | 0.00 | 0.00 | 69 | 1013.4 |